Regional Weather Roundup
Issued by NWS

Home | Current Version | Previous Version | Text Only | Print | Product List | Glossary On
Versions: 1 2 3 4 5 6 7 8 9 10 11 12 13 14 15 16 17 18 19 20 21 22 23 24 25 26 27 28 29 30 31 32 33 34 35 36 37 38 39 40 41 42 43 44 45 46 47 48 49 50
000
ASUS45 KSLC 121010
RWRUT

UTAH REGIONAL WEATHER ROUNDUP
NATIONAL WEATHER SERVICE SALT LAKE CITY UT
300 AM MST FRI FEB 12 2016

UTZ001>011-023>025-121100-

NORTHERN UTAH

CITY           SKY/WX    TMP DP  RH WIND       PRES   REMARKS
BRIGHAM CITY   CLOUDY    26  24  93 CALM      30.44F
HILL AFB       FOG       27  23  86 S1        30.40F VSB 1/2
LOGAN          FOG       21  21 100 CALM      30.44R VSB 1/4
OGDEN          CLOUDY    26  26 100 CALM      30.42S FOG
PROVO AIRPORT  CLOUDY   N/A N/A N/A SE3       30.42S VSB 1/4
SALT LAKE CITY CLOUDY    29  27  92 S7        30.42F FOG     WCI  22
VERNAL         CLOUDY    18  14  84 W3        30.42S FOG
WENDOVER       CLOUDY    30  25  80 CALM      30.43S
HEBER CITY     PTCLDY    14  10  85 CALM      30.39S
WEST JORDAN    CLOUDY    28  28 100 SE3       30.41F

$$

UTZ012>022-026-027-121100-

SOUTHERN/CENTRAL UTAH

CITY           SKY/WX    TMP DP  RH WIND       PRES   REMARKS
BLANDING       PTCLDY    29  22  74 N8        30.46S WCI  21
BRYCE CANYON   PTCLDY    22  13  68 W13       30.43S WCI  10
CEDAR CITY     MOCLDY    21  18  88 NE5       30.36S WCI  15
DELTA          CLOUDY    15  14  95 CALM      30.42S VSB<1/4
HANKSVILLE     MOCLDY    30  28  93 CALM      30.44S
MILFORD        FOG        8   6  92 N6        30.40S VSB 1/4 WCI  -2
MOAB/CYNLANDS  PTCLDY    31  27  85 E3        30.41R
PRICE          PTCLDY    25  19  78 N5        30.39S WCI  19
ST GEORGE      MOSUNNY   39  23  52 SE5       30.33R
KANAB          PTCLDY    30  27  86 N6        30.39  WCI  24

$$

REGIONAL REPORTS     COLORADO/ARIZONA

CITY           SKY/WX    TMP DP  RH WIND       PRES   REMARKS
CRAIG, CO      CLOUDY     9   5  84 CALM      30.41S
GRAND JUNCTION CLOUDY    27  22  81 SE8       30.41S WCI  19
RIFLE          CLOUDY    18  12  77 CALM      30.45R
MONTROSE       CLOUDY    25  17  72 S9        30.45S WCI  15
CORTEZ         CLOUDY    22  17  81 NE3       30.41S
PAGE, AZ       MOCLDY    37  29  72 CALM      30.37S
GRAND CANYON   MOCLDY    24  18  77 NE5       30.40S WCI  18
KINGMAN        CLEAR     37  24  59 CALM      30.25S
FLAGSTAFF      PTCLDY    23  18  81 CALM      30.41S

$$

REGIONAL REPORTS    NEVADA/IDAHO/WYOMING

CITY           SKY/WX    TMP DP  RH WIND       PRES   REMARKS
LAS VEGAS, NV  CLEAR     50  22  33 SW5       30.20R
ELY            MOCLDY    21  13  71 S18       30.37S WCI   6
ELKO           CLOUDY    14  11  87 NE6       30.38R WCI   5
POCATELLO, ID  CLOUDY    25  21  85 CALM      30.35F
BURLEY         CLEAR     29  26  89 N6        30.30S WCI  23
EVANSTON, WY   CLOUDY    33  14  45 S8        30.39R WCI  26
ROCK SPRINGS   CLOUDY    32  18  56 SW12      30.36S WCI  23

$$



USA.gov is the U.S. government's official web portal to all federal, state and local government web resources and services.